Airfield :
LOGIN :

Register | Disclaimer

   EN    FR    IT 

 










Legend :    VFR   Marginal VFR   IFR   Intensive IFR   Very Intensive IFR
Visi :
Ceiling :
>= 8 km
>= 3000ft
5 to 8 km
1000 to 3000 ft
1500m to 5 km
500 to 1000 ft
800 to 1500m
200 to 500 ft
< 800m
< 200 ft
Symbols :   Thunderstorms  Fog  Heavy snow  Heavy precipitations  Wind > 20 kt
SIGMETs :     Misc.  Thunderstorms  Icing  Turbulence  Mountain Waves  Volcanic Ashes






- Airport Elevation : 51 ft
- IATA code : GWT


EDXW - Westerland-Sylt Island

CURRENT METAR :
  • 180850Z 05006KT 010V080 CAVOK 10/04 Q1023

EXPIRED METARs :
  • 180820Z 09003KT 020V130 CAVOK 10/04 Q1023
  • 180750Z 06005KT CAVOK 08/04 Q1023
  • 180720Z AUTO 05009KT 9999 // BKN098/// 09/05 Q1023
  • 180650Z AUTO 05007KT 9999 // BKN090/// 08/05 Q1023

TAF TAF EDXW
Valid from the 18 at 09:00 until the 18 at 18:00 UTC


180800Z 1809/1818 06006KT CAVOK
BECMG 1812/1814 36008KT



MET'MAP, your aeronautical weather chart ! - Copyright ORBIFLY December 2007 - Disclaimer

ORBIFLY MET'MAP TEAM :

Programming & Development : Alexandra Zaïnal
Concept & original design : Baudouin d'Aumeries
Assistance for programming : Marc-Olivier Méhu
Technical & hardware support : Manuel Goepfert

Contact : metmap@orbifly.com




SOURCES & CREDITS :

   NOAA